SCP
0 0 0 0 0 0 0 0 0 0 0 0 0 0 0 0 0 0 0 0 0 0 0 0 0 0 0 0 0 0 0 0 0 0 0 0 0 0 0 0 0 0 0 0
0 0 0 0 0 0 0 0 0 0 0 0 0 0 0 0 0 0 0 0 0 0 0 0 0 0 0 0 0 0 0 0 0 0 0 0 0 0 0 0 0 0 0 0
0 0 0 0 0 0 0 0 0 0 0 0 0 0 0 0 0 0 0 0 0 0 0 0 0 0 0 0 0 0 0 0 0 0 0 0 0 0 0 0 0 0 0 0
0 0 0 0 0 0 0 0 0 0 0 0 0 0 0 0 0 0 0 0 0 0 0 0 0 0 0 0 0 0 0 0 0 0 0 0 0 0 0 0 0 0 0 0
0 0 0 0 0 0 0 0 0 0 0 0 0 0 0 0 0 0 0 0 0 0 0 0 0 0 0 0 0 0 0 0 0 0 0 0 0 0 0 0 0 0 0 0
0 0 0 0 0 0 0 0 0 0 0 0 0 0 0 0 0 0 0 0 0 0 0 0 0 0 0 0 0 0 0 0 0 0 0 0 0 0 0 0 0 0 0 0
0 0 0 0 0 0 0 0 0 0 0 0 0 0 0 0 0 0 0 0 0 0 0 0 0 0 0 0 0 0 0 0 0 0 0 0 0 0 0 0 0 0 0 0
0 0 0 0 0 0 0 0 0 0 0 0 0 0 0 0 0 0 0 0 0 0 0 0 0 0 0 0 0 0 0 0 0 0 0 0 0 0 0 0 0 0 0 0
0 0 0 0 0 0 0 0 0 0 0 0 0 0 0 0 0 0 0 0 0 0 0 0 0 0 0 0 0 0 0 0 0 0 0 0 0 0 0 0 0 0 0 0
0 0 0 0 0 0 0 0 0 0 0 0 0 0 0 0 0 0 0 0 0 0 0 0 0 0 0 0 0 0 0 0 0 0 0 0 0 0 0 0 0 0 0 0
0 0 0 0 0 0 0 0 0 0 0 0 0 0 0 0 0 0 0 0 0 0 0 0 0 0 0 0 0 0 0 0 0 0 0 0 0 0 0 0 0 0 0 0
0 0 0 0 0 0 0 0 0 0 0 0 0 0 0 0 0 0 0 0 0 0 0 0 0 0 0 0 0 0 0 0 0 0 0 0 0 0 0 0 0 0 0 0
0 0 0 0 0 0 0 0 0 0 0 0 0 0 0 0 0 0 0 0 0 0 0 0 0 0 0 0 0 0 0 0 0 0 0 0 0 0 0 0 0 0 0 0
0 0 0 0 0 0 0 0 0 0 0 0 0 0 0 0 0 0 0 0 0 0 0 0 0 0 0 0 0 0 0 0 0 0 0 0 0 0 0 0 0 0 0 0
0 0 0 0 0 0 0 0 0 0 0 0 0 0 0 0 0 0 0 0 0 0 0 0 0 0 0 0 0 0 0 0 0 0 0 0 0 0 0 0 0 0 0 0
0 0 0 0 0 0 0 0 0 0 0 0 0 0 0 0 0 0 0 0 0 0 0 0 0 0 0 0 0 0 0 0 0 0 0 0 0 0 0 0 0 0 0 0
0 0 0 0 0 0 0 0 0 0 0 0 0 0 0 0 0 0 0 0 0 0 0 0 0 0 0 0 0 0 0 0 0 0 0 0 0 0 0 0 0 0 0 0
0 0 0 0 0 0 0 0 0 0 0 0 0 0 0 0 0 0 0 0 0 0 0 0 0 0 0 0 0 0 0 0 0 0 0 0 0 0 0 0 0 0 0 0
0 0 0 0 0 0 0 0 0 0 0 0 0 0 0 0 0 0 0 0 0 0 0 0 0 0 0 0 0 0 0 0 0 0 0 0 0 0 0 0 0 0 0 0
0 0 0 0 0 0 0 0 0 0 0 0 0 0 0 0 0 0 0 0 0 0 0 0 0 0 0 0 0 0 0 0 0 0 0 0 0 0 0 0 0 0 0 0
0 0 0 0 0 0 0 0 0 0 0 0 0 0 0 0 0 0 0 0 0 0 0 0 0 0 0 0 0 0 0 0 0 0 0 0 0 0 0 0 0 0 0 0
0 0 0 0 0 0 0 0 0 0 0 0 0 0 0 0 0 0 0 0 0 0 0 0 0 0 0 0 0 0 0 0 0 0 0 0 0 0 0 0 0 0 0 0
0 0 0 0 0 0 0 0 0 0 0 0 0 0 0 0 0 0 0 0 0 0 0 0 0 0 0 0 0 0 0 0 0 0 0 0 0 0 0 0 0 0 0 0
0 0 0 0 0 0 0 0 0 0 0 0 0 0 0 0 0 0 0 0 0 0 0 0 0 0 0 0 0 0 0 0 0 0 0 0 0 0 0 0 0 0 0 0
0 0 0 0 0 0 0 0 0 0 0 0 0 0 0 0 0 0 0 0 0 0 0 0 0 0 0 0 0 0 0 0 0 0 0 0 0 0 0 0 0 0 0 0
0 0 0 0 0 0 0 0 0 0 0 0 0 0 0 0 0 0 0 0 0 0 0 0 0 0 0 0 0 0 0 0 0 0 0 0 0 0 0 0 0 0 0 0
Wind_Speed
4 5 1 3 2 2 3 3 2 3 2 1 5 9 10 5 5 7 6 6 7 8 6 4 4 3 2 2 2 3 3 2 2 2 1 1 1 0 1 1 1 1 1 1
4 1 2 1 1 3 2 2 1 3 2 2 5 10 9 7 7 8 8 8 9 7 5 4 4 3 4 4 4 4 3 3 2 2 2 1 1 1 1 0 1 1 1 1
3 2 1 2 2 3 0 3 3 2 3 2 4 9 7 6 5 6 7 8 7 8 8 6 5 5 5 5 5 5 5 4 3 3 2 2 2 1 1 0 0 1 1 1
1 2 1 2 0 1 2 1 1 1 1 3 1 6 9 5 5 7 8 8 9 8 7 6 6 5 6 6 5 5 4 4 3 3 3 4 3 2 2 1 1 1 1 1
0 1 1 1 1 1 2 1 1 0 1 3 1 3 11 2 6 8 8 9 9 8 7 7 7 7 6 5 4 4 4 4 3 4 4 4 3 2 2 1 2 1 1 1
0 1 0 1 0 1 2 3 3 3 2 3 4 4 10 5 7 5 5 6 7 6 6 6 4 4 3 3 3 3 4 4 4 4 4 5 5 4 3 2 2 1 1 1
2 1 1 1 2 2 2 4 4 6 4 6 2 4 12 7 5 5 5 6 5 5 5 5 4 4 4 4 4 4 4 4 4 4 4 5 5 5 5 4 3 2 1 0
2 3 1 0 2 3 2 4 5 4 4 6 2 8 10 6 4 4 5 4 3 4 4 5 5 5 5 5 5 4 5 4 4 4 4 3 4 3 3 3 3 3 2 1
5 3 1 0 0 3 3 2 2 4 0 4 6 8 11 4 4 4 4 3 3 4 4 4 4 5 5 5 5 5 5 4 4 3 3 3 4 3 3 3 3 2 2 1
5 2 1 1 1 1 1 4 4 3 2 4 7 6 6 6 5 4 4 4 4 2 2 2 3 4 4 4 4 4 4 4 3 3 3 3 3 3 3 3 3 2 2 2
3 4 1 1 4 5 3 2 3 3 3 4 5 9 6 5 4 4 5 4 4 3 3 3 3 3 3 3 3 4 4 3 3 3 3 3 3 3 3 3 3 3 2 2
3 5 1 4 1 0 2 4 6 4 4 4 3 11 4 4 4 3 4 4 3 3 3 3 2 2 2 3 3 3 3 4 4 3 4 3 3 3 3 2 2 3 3 2
5 6 2 4 2 1 2 3 4 3 3 4 5 11 3 2 3 3 4 4 3 2 2 1 2 2 3 3 3 4 4 4 3 4 4 3 3 3 3 3 2 2 2 2
4 4 6 8 5 5 5 5 5 5 5 6 11 12 10 7 6 5 4 4 3 3 3 3 3 3 3 3 4 4 4 4 4 4 4 4 4 4 3 3 2 3 3 3
4 3 3 4 2 2 6 7 9 11 10 10 10 11 15 9 7 6 4 3 3 4 4 5 5 4 4 3 3 3 3 3 4 4 4 4 3 3 3 3 2 2 2 3
3 3 1 3 1 2 7 10 11 12 10 11 11 17 14 7 4 5 6 5 5 6 6 6 5 5 5 5 4 4 3 3 4 5 4 3 3 3 3 3 3 3 2 2
5 6 3 3 3 4 10 12 14 10 10 11 15 17 7 5 7 8 7 6 8 8 7 6 6 6 5 5 4 5 4 3 4 4 3 3 4 4 3 3 3 3 3 2
7 6 3 1 2 8 10 3 9 10 11 13 12 10 8 8 5 5 6 7 8 7 6 5 5 4 4 3 3 3 3 4 4 4 3 3 3 3 3 3 3 3 2 3
4 7 5 3 4 12 11 5 8 9 11 13 16 14 9 3 3 6 6 7 7 6 5 4 4 3 3 3 3 4 3 3 3 4 4 4 4 4 3 3 3 3 2 2
2 3 5 5 4 10 9 2 4 4 9 7 12 13 7 4 2 6 2 3 4 3 2 2 2 2 2 2 3 4 4 4 4 4 4 3 3 4 4 4 3 2 2 3
5 4 5 6 7 13 9 3 6 5 9 3 8 9 8 9 8 3 1 1 1 1 1 2 2 2 2 2 4 4 3 4 3 2 2 2 3 3 3 2 2 2 2 2
13 10 9 7 7 15 6 9 11 10 2 1 3 5 7 6 4 2 2 2 1 1 1 2 2 1 1 2 4 3 3 2 2 2 2 2 2 2 2 2 2 2 2 2
11 13 11 14 14 6 9 10 7 1 2 2 3 3 4 4 4 4 3 2 2 2 2 2 2 2 1 2 3 3 2 1 2 2 2 2 2 1 2 3 3 2 2 2
7 4 5 7 11 8 7 7 5 4 4 3 3 3 4 4 4 4 3 3 2 2 2 2 2 2 1 1 1 1 1 2 3 2 2 2 2 2 1 2 2 3 3 3
9 8 6 9 8 5 7 9 10 7 5 5 4 3 4 4 4 4 3 3 3 2 2 2 2 2 2 1 1 1 1 2 2 2 2 2 2 2 2 2 2 3 4 4
9 11 12 11 9 8 7 5 6 7 8 7 5 4 3 4 5 4 3 3 3 2 2 2 2 2 2 1 1 0 1 3 3 2 2 2 1 1 1 2 2 4 4 5
Wind_Direction
25 68 136 227 214 171 155 167 224 269 297 260 259 271 272 250 233 244 248 247 250 247 246 232 223 222 208 182 181 179 170 163 143 138 143 143 156 126 80 76 72 72 73 77
50 24 259 212 134 103 122 153 259 301 322 277 288 279 269 245 230 230 232 237 244 251 250 237 221 213 204 196 195 193 191 182 177 167 159 151 148 157 152 109 97 103 98 89
144 252 299 111 92 102 78 194 218 256 317 334 317 297 270 255 235 237 232 233 237 235 235 232 219 218 212 208 204 203 199 191 186 164 132 107 84 64 101 126 113 82 114 108
87 300 144 98 80 160 234 235 190 245 338 307 10 294 285 262 264 246 239 234 237 234 229 224 216 219 218 217 209 203 194 188 183 166 161 164 168 179 193 171 150 109 103 105
303 356 101 135 242 152 178 78 82 341 235 302 281 248 281 294 270 256 240 236 237 229 221 220 214 216 216 209 202 198 185 184 180 177 182 179 177 173 151 131 130 124 101 89
230 316 75 171 33 130 145 68 45 34 51 287 237 206 277 246 236 259 252 244 240 232 222 221 217 205 202 194 192 184 179 187 184 183 186 181 174 164 147 150 158 152 127 98
355 350 357 85 95 41 86 84 25 359 357 258 235 226 254 258 242 243 260 259 247 230 215 209 205 198 195 192 192 186 181 189 188 188 192 188 181 170 170 171 175 165 147 159
145 275 243 166 158 162 166 137 153 207 248 284 269 242 256 267 274 274 275 269 252 227 212 210 208 201 198 194 189 187 190 194 185 188 194 181 167 165 171 172 170 171 179 187
166 228 8 20 313 139 141 173 163 133 342 288 272 279 296 282 295 294 290 284 260 235 216 209 205 200 197 194 191 191 193 194 190 189 185 172 163 162 169 166 153 155 164 149
147 160 305 318 70 16 152 147 115 132 185 280 291 278 267 291 286 291 287 271 263 254 235 219 208 204 200 196 190 183 190 193 191 184 186 178 169 168 168 155 151 157 159 148
129 130 321 344 201 186 147 151 143 138 168 183 279 275 233 245 263 258 257 256 251 240 233 224 218 212 202 189 182 185 190 185 182 184 177 168 168 162 157 159 161 164 157 156
143 119 203 245 237 282 198 189 161 169 224 203 230 270 271 244 267 267 267 270 265 242 232 222 209 197 193 201 195 195 194 193 193 180 169 176 166 150 150 164 169 161 164 165
143 123 75 343 326 290 239 214 188 151 139 178 206 264 301 306 297 282 272 273 272 260 248 228 206 207 209 210 204 202 201 200 184 169 167 169 168 160 170 177 171 161 162 156
122 144 177 203 222 181 214 213 184 162 186 217 230 257 284 286 286 290 282 267 257 253 235 227 227 222 217 211 205 203 208 195 174 167 172 179 185 181 182 177 168 166 161 159
127 187 223 252 274 215 225 218 196 204 210 213 240 245 260 258 256 264 264 261 256 251 239 229 227 224 216 213 209 204 204 184 168 170 182 193 185 173 166 166 167 163 159 169
138 163 157 285 295 272 266 242 216 225 231 240 262 269 261 258 249 253 251 241 246 249 242 233 226 219 215 211 208 201 201 186 168 178 191 186 170 168 172 175 169 161 166 169
155 140 143 261 320 344 270 225 199 205 211 200 227 245 258 255 240 236 239 236 239 245 244 233 224 218 215 209 200 199 195 169 167 181 186 179 173 175 179 173 168 174 180 174
150 141 144 157 44 247 246 189 187 207 230 216 234 249 243 241 253 246 232 228 239 240 240 235 219 214 211 196 187 181 159 158 168 177 184 179 174 179 172 170 182 189 182 186
161 145 138 147 232 275 288 228 178 196 255 221 228 246 253 259 322 282 239 218 224 229 224 221 206 196 185 184 173 155 155 159 169 185 193 191 182 178 174 185 197 196 183 196
118 133 141 154 196 243 250 191 165 136 277 234 207 226 229 154 225 262 237 203 214 221 207 192 165 148 162 168 149 154 167 172 196 205 203 191 182 181 186 196 198 191 187 201
157 166 184 189 224 258 250 168 138 174 248 244 195 207 188 190 212 220 153 168 183 195 187 151 141 154 175 151 146 164 177 203 209 185 176 176 179 184 186 186 180 168 173 178
174 172 187 171 212 251 198 153 190 217 251 193 193 195 193 213 232 221 216 211 187 164 143 142 144 160 136 138 150 168 203 210 142 142 158 174 178 177 168 165 166 161 166 183
200 190 184 193 215 235 175 199 218 212 228 223 205 207 190 205 222 218 217 221 211 190 175 156 151 144 115 132 150 176 204 124 130 140 163 170 160 169 166 170 171 166 176 197
232 205 189 238 254 248 235 249 256 237 234 241 226 205 186 201 213 214 216 212 201 188 176 153 147 156 165 145 162 178 136 128 143 161 172 166 167 172 174 182 183 188 197 208
200 174 198 242 262 289 261 235 238 236 238 244 237 215 212 208 219 212 209 210 202 195 177 160 175 188 198 164 154 119 125 138 154 168 171 177 180 183 194 208 218 219 224 217
184 181 188 222 212 203 237 236 219 218 232 229 222 228 225 205 216 214 214 209 193 189 174 170 183 195 200 168 180 145 147 158 161 171 186 192 191 198 206 220 268 251 246 250